Location: Washington
(38.8950°N, 77.0370°W)
Time: 06:02:06
(UTC-05:00)

ISS - All Passes

Search period start: 17 January 2018 00:00
Search period end: 27 January 2018 00:00
Orbit: 401 x 406 km, 51.6° (Epoch: 17 January)

Date Brightness Start Highest point End Pass type
(mag) Time Alt. Az. Time Alt. Az. Time Alt. Az.
17 Jan - 00:36:20 10° NW 00:37:38 12° NNW 00:38:56 10° N night (unlit)
17 Jan - 03:50:06 10° NNW 03:52:46 22° NNE 03:55:25 10° E night (unlit)
17 Jan - 05:26:12 10° WNW 05:29:23 47° SW 05:32:33 10° SSE visible
17 Jan - 22:04:45 10° SW 22:08:00 80° NW 22:11:16 10° NE night (unlit)
17 Jan - 23:42:52 10° WNW 23:44:54 15° NNW 23:46:57 10° NNE night (unlit)
18 Jan - 02:58:02 10° NNW 03:00:06 16° NNE 03:02:11 10° ENE night (unlit)
18 Jan - 04:33:43 10° NW 04:37:00 82° NE 04:40:16 10° SE visible
18 Jan - 21:12:28 10° SSW 21:15:36 48° SE 21:18:46 10° ENE night (unlit)
18 Jan - 22:49:37 10° W 22:52:15 22° NNW 22:54:51 10° NNE night (unlit)
19 Jan - 02:06:02 10° N 02:07:22 12° NNE 02:08:42 10° NE night (unlit)
19 Jan - 03:41:23 10° NW 03:44:31 42° NNE 03:47:39 10° ESE night (unlit)
19 Jan - 05:18:24 10° W 05:20:46 19° SW 05:23:08 10° S visible
19 Jan - 20:20:37 10° S 20:23:17 24° SE 20:25:58 10° ENE night (unlit)
19 Jan - 21:56:37 10° W 21:59:38 34° NNW 22:02:39 10° NE night (unlit)
19 Jan - 23:35:54 10° NNW 23:36:52 11° NNW 23:37:51 10° N night (unlit)
20 Jan - 02:49:09 10° NNW 02:51:57 25° NNE 02:54:44 10° E night (unlit)
20 Jan - 04:25:25 10° WNW 04:28:28 37° SW 04:31:31 10° SSE night (unlit)
20 Jan - 19:29:42 10° SSE 19:31:02 12° SE 19:32:22 10° ESE night (unlit)
20 Jan - 21:03:53 10° WSW 21:07:05 63° NW 21:10:20 10° NE night (unlit)
20 Jan - 22:42:16 10° NW 22:44:05 14° NNW 22:45:54 10° NNE night (unlit)
21 Jan - 01:56:59 10° NNW 01:59:16 17° NNE 02:01:33 10° ENE night (unlit)
21 Jan - 03:32:48 10° NW 03:36:04 79° SW 03:39:20 10° SE night (unlit)
21 Jan - 20:11:26 10° SW 20:14:38 62° SE 20:17:52 10° ENE visible
21 Jan - 21:48:55 10° WNW 21:51:21 19° NNW 21:53:48 10° NNE night (unlit)
22 Jan - 01:04:56 10° NNW 01:06:31 13° NNE 01:08:07 10° NE night (unlit)
22 Jan - 02:40:23 10° NW 02:43:35 51° NE 02:46:47 10° ESE night (unlit)
22 Jan - 04:17:47 10° W 04:19:44 15° SW 04:21:41 10° SSW night (unlit)
22 Jan - 19:19:23 10° SSW 19:22:15 29° SE 19:25:09 10° ENE visible
22 Jan - 20:55:48 10° W 20:58:41 29° NNW 21:01:36 10° NNE night (unlit)
22 Jan - 22:35:26 10° NNW 22:36:00 10° N 22:36:33 10° N night (unlit)
23 Jan - 00:13:05 10° N 00:13:41 10° N 00:14:18 10° NNE night (unlit)
23 Jan - 01:48:04 10° NNW 01:51:00 29° NNE 01:53:55 10° E night (unlit)
23 Jan - 03:24:31 10° WNW 03:27:26 29° SW 03:30:18 10° SSE night (unlit)
23 Jan - 18:27:59 10° SSE 18:29:56 15° SE 18:31:54 10° E visible
23 Jan - 20:02:55 10° WSW 20:06:05 51° NW 20:09:17 10° NE visible
23 Jan - 21:41:35 10° NW 21:43:09 13° NNW 21:44:44 10° NNE night (unlit)
24 Jan - 00:55:51 10° NNW 00:58:19 19° NNE 01:00:47 10° ENE night (unlit)
24 Jan - 02:31:47 10° WNW 02:35:01 62° SW 02:38:15 10° SE night (unlit)
24 Jan - 19:10:19 10° SW 19:13:33 80° SE 19:16:50 10° NE visible
24 Jan - 20:48:07 10° WNW 20:50:22 17° NNW 20:52:38 10° NNE night (unlit)
25 Jan - 00:03:42 10° NNW 00:05:33 14° NNE 00:07:23 10° NE night (unlit)
25 Jan - 01:39:16 10° NW 01:42:31 64° NE 01:45:46 10° ESE night (unlit)
25 Jan - 03:17:16 10° WSW 03:18:35 12° SW 03:19:53 10° SSW night (unlit)
25 Jan - 18:18:05 10° SSW 18:21:07 37° SE 18:24:09 10° ENE visible
25 Jan - 19:54:52 10° W 19:57:38 25° NNW 20:00:25 10° NNE visible
25 Jan - 23:11:43 10° N 23:12:41 11° NNE 23:13:41 10° NNE night (unlit)
26 Jan - 00:46:53 10° NW 00:49:56 34° NNE 00:52:57 10° E night (unlit)
26 Jan - 02:23:35 10° WNW 02:26:16 23° SW 02:28:56 10° S night (unlit)
26 Jan - 17:26:22 10° S 17:28:43 19° SE 17:31:05 10° E daylight
26 Jan - 19:01:52 10° WSW 19:04:58 41° NNW 19:08:06 10° NE visible
26 Jan - 20:40:49 10° NW 20:42:07 12° NNW 20:43:25 10° N visible
26 Jan - 23:54:36 10° NNW 23:57:14 22° NNE 23:59:51 10° E night (unlit)
